Home   Weather   Waterloo   Past weeks

Flag for Canada Past Weather in Waterloo, Ontario, Canada — Yesterday and Last 2 Weeks

Now
32 °F

Ice fog.


Feels Like: 20 °F
Forecast: 32 / 37 °F
Wind: 21 mph from East

Location: Waterloo Well

Current Time: Jan 23, 2017 at 1:57:41 am

Latest Report: Jan 23, 2017 at 1:37 am


Visibility: 5 mi

Pressure: 29.73 "Hg

Humidity: 100%

Dew Point: 32 °F

Location of WaterlooLocation

Past Weather in Waterloo — Graph

°F

Waterloo Temperature Yesterday

Maximum temperature yesterday: 39 °F (at 10:37 am)
Minimum temperature yesterday: 34 °F (at 2:34 am)
Average temperature yesterday: 37 °F

High & Low Weather Summary for the Past Weeks

 TemperatureHumidityPressure
High48 °F (Jan 12, 2:41 am)100% (Jan 10, 7:28 am)30.78 "Hg (Jan 10, 7:28 am)
Low5 °F (Jan 8, 6:00 pm)41% (Jan 16, 3:00 pm)29.44 "Hg (Jan 10, 11:29 pm)
Average30 °F88%30.06 "Hg
* Reported Jan 8 12:03 am — Jan 23 12:18 am, Waterloo, Weather by CustomWeather, © 2017

Note: Actual official high and low records may vary slightly from our data, if they occured in-between our weather recording intervals... More about our weather records

Advertising

Waterloo Weather History for the Previous 24 Hours

Scroll right to see more
 ConditionsComfort  
Time TempWeatherWind HumidityBarometerVisibility
12:18 am
Mon, Jan 23
34 °FFog.17 mph93%29.74 "Hg6 mi
12:00 am34 °FFog.14 mph100%29.74 "Hg5 mi
11:38 pm
Sun, Jan 22
34 °FFog.13 mph100%29.75 "Hg5 mi
11:00 pm34 °FLow clouds.16 mph100%29.74 "Hg9 mi
10:00 pm36 °FLow clouds.18 mph93%29.74 "Hg7 mi
9:33 pm36 °FFog.15 mph100%29.75 "Hg6 mi
9:00 pm36 °FFog.17 mph100%29.74 "Hg4 mi
8:33 pm37 °FFog.18 mph93%29.74 "Hg3 mi
8:20 pm37 °FFog.17 mph100%29.74 "Hg2 mi
8:05 pm37 °FFog.15 mph100%29.74 "Hg2 mi
7:53 pm37 °FFog.16 mph100%29.73 "Hg2 mi
7:00 pm37 °FFog.17 mph100%29.72 "Hg1 mi
6:00 pm39 °FFog.14 mph93%29.71 "Hg1 mi
5:49 pm39 °FFog.12 mph93%29.71 "Hg1 mi
5:00 pm39 °FLight rain. Fog.10 mph93%29.70 "Hg0 mi
4:00 pm39 °FLight rain. Fog.12 mph100%29.70 "Hg0 mi
3:48 pm39 °FLight rain. Fog.9 mph100%29.70 "Hg0 mi
3:00 pm39 °FFog.10 mph100%29.69 "Hg0 mi
2:58 pm39 °FFog.10 mph100%29.69 "Hg0 mi
2:00 pm39 °FLight rain. Fog.9 mph100%29.69 "Hg0 mi
1:38 pm39 °FFog.9 mph100%29.70 "Hg0 mi
1:10 pm39 °FLight rain. Fog.10 mph100%29.70 "Hg1 mi
1:00 pm39 °FFog.10 mph100%29.71 "Hg1 mi
12:54 pm39 °FFog.8 mph100%29.71 "Hg2 mi
12:08 pm39 °FFog.9 mph100%29.72 "Hg5 mi
12:00 pm39 °FFog.9 mph100%29.72 "Hg6 mi
11:35 am39 °FFog.10 mph93%29.73 "Hg3 mi
11:00 am37 °FFog.9 mph100%29.73 "Hg1 mi
10:37 am39 °FFog.13 mph93%29.72 "Hg3 mi
10:00 am37 °FLight rain. Fog.9 mph100%29.72 "Hg0 mi
9:00 am36 °FLight rain. Fog.5 mph100%29.72 "Hg0 mi
8:11 am36 °FLight rain. Fog.6 mph100%29.68 "Hg0 mi
8:00 am36 °FFog.7 mph100%29.69 "Hg0 mi
7:33 am36 °FFog.5 mph93%29.68 "Hg1 mi
7:22 am36 °FFog.6 mph100%29.67 "Hg1 mi
6:43 am36 °FLight rain. Fog.5 mph93%29.67 "Hg1 mi
6:14 am34 °FFog.5 mph100%29.68 "Hg1 mi
6:00 am34 °FFog.3 mph100%29.68 "Hg0 mi
5:52 am34 °FFog.2 mph100%29.68 "Hg0 mi
5:00 am34 °FLight rain. Fog.3 mph100%29.69 "Hg0 mi
4:12 am34 °FLight rain. Fog.2 mph100%29.70 "Hg0 mi
4:00 am34 °FLight rain. Fog.3 mph100%29.70 "Hg0 mi
3:38 am34 °FLight rain. Fog.3 mph100%29.70 "Hg0 mi
3:09 am36 °FLight rain. Fog.2 mph93%29.70 "Hg0 mi
2:42 am34 °FLight rain. Fog.2 mph100%29.71 "Hg0 mi
2:34 am34 °FFog.2 mph100%29.70 "Hg0 mi
2:00 am36 °FFog.3 mph93%29.70 "Hg0 mi
1:49 am36 °FFog.3 mph93%29.70 "Hg0 mi
1:27 am36 °FLight rain. Fog.3 mph100%29.70 "Hg0 mi
1:04 am36 °FLight rain. Fog.5 mph100%29.69 "Hg0 mi
Weather by CustomWeather, © 2017

See weather overviewHow to use our weather pages